Regional Weather Roundup
Issued by NWS

Home | Current Version | Previous Version | Graphics & Text | Print | Product List | Glossary On
Versions: 1 2 3 4 5 6 7 8 9 10 11 12 13 14 15 16 17 18 19 20 21 22 23 24 25 26 27 28 29 30 31 32 33 34 35 36 37 38 39 40 41 42 43 44 45 46 47 48 49 50
914
ASUS43 KLOT 242103
RWRIL

ILLINOIS REGIONAL WEATHER ROUNDUP
NATIONAL WEATHER SERVICE CHICAGO/ROMEOVILLE IL
300 PM CST FRI FEB 24 2017

NOTE: "FAIR" INDICATES FEW OR NO CLOUDS BELOW 12,000 FEET WITH NO
SIGNIFICANT WEATHER AND/OR OBSTRUCTIONS TO VISIBILITY.

* THESE STATIONS ARE NOT UNDER NWS QUALITY CONTROL. THEY ALSO MAY NOT
  REPORT WEATHER SUCH AS PRECIPITATION OR FOG.

ILZ001-002-007-009-015-016-024-242200-
NORTHWEST ILLINOIS

CITY           SKY/WX    TMP DP  RH WIND       PRES   REMARKS
MOLINE         CLOUDY    41  35  79 NW6       29.56R HAZE
STERLING*      CLOUDY    38  36  92 NW7       29.54R FOG     WCI  33
$$

ILZ003-004-008-010-011-017-018-242200-
NORTH CENTRAL ILLINOIS

CITY           SKY/WX    TMP DP  RH WIND       PRES   REMARKS
ROCKFORD       DRIZZLE   38  35  89 N8        29.52R FOG     WCI  32
FREEPORT*      CLOUDY    34  33  97 N8        29.54R FOG     WCI  27
ROCHELLE*      CLOUDY    37  36  97 N7        29.51R FOG     WCI  32
DE KALB*       CLOUDY    37  37  97 N7        29.49R FOG     WCI  32
PERU*          CLOUDY    41  40  94 W10       29.52R FOG
$$

ILZ005-006-012>014-019>023-242200-
NORTHEAST ILLINOIS

CITY           SKY/WX    TMP DP  RH WIND       PRES   REMARKS
CHICAGO-OHARE  CLOUDY    40  38  93 N9        29.45R FOG
CHICAGO-MIDWAY CLOUDY    41  38  89 N7        29.46R
AURORA         FOG       42  40  92 NW6       29.47R VSB 1/2
LANSING*       CLOUDY    43  42  97 N3        29.46R
JOLIET*        CLOUDY    49  46  87 W3        29.48R
WAUKEGAN       CLOUDY    37  35  92 N9        29.47R FOG     WCI  30
DUPAGE AIRPORT CLOUDY    40  37  89 N7        29.46R FOG
KANKAKEE*      CLOUDY    61  49  66 SW24      29.47R
WHEELING       CLOUDY    38  37  97 N10       29.47S FOG     WCI  31
MORRIS*        CLOUDY    49  45  88 W16G22    29.47R
ROMEOVILLE*    CLOUDY    45  44  98 CALM      29.47R
NORTHERLY ISL    N/A     40  38  93 N7          N/A
$$

LMZ740>746-242200-
SOUTHERN LAKE MICHIGAN

STATION/POSITION SKY/WX   TEMP    WIND        PRES    VSBY  WAVE
                          AIR SEA DIR/SP/G                  HT/PER
                          (F)     (DEG/KT/KT) (MB)    (MI)  (FT/S)
HARRISON CRIB              37     330/ 19/ 20   N/A
BURNHAM HARBOR             38     360/ 11/ 12   N/A
CALUMET HARBOR             40     330/  9/ 11  997.2R
BURNS HARBOR               36     270/  9/ 12  998.3R
MICHIGAN CITY              36     220/ 14/ 14   N/A
$$

ILZ025>027-034>036-040-047-049-050-058-095>099-242200-
WEST-CENTRAL ILLINOIS

CITY           SKY/WX    TMP DP  RH WIND       PRES   REMARKS
QUINCY         CLOUDY    45  37  73 W13       29.60R
GALESBURG*     CLOUDY    40  38  91 W13       29.56R
MACOMB*        CLOUDY    43  39  86 W16       29.60S
JACKSONVILLE*  CLOUDY    47  39  75 W14G20    29.60S
PITTSFIELD*    CLOUDY    46  40  79 SW13      29.63R
$$

ILZ028>032-037-038-041>044-048-051>054-059>061-242200-
CENTRAL ILLINOIS

CITY           SKY/WX    TMP DP  RH WIND       PRES   REMARKS
PONTIAC        CLOUDY    51  47  86 W23G31    29.51R
BLOOMINGTON    CLOUDY    48  42  80 W20G28    29.54R
DECATUR        CLOUDY    52  42  69 W21G28    29.56R
PEORIA         CLOUDY    44  38  79 W16G23    29.57R
LACON*         CLOUDY    43  41  93 W13       29.54R
LINCOLN*       CLOUDY    51  42  70 W14G21    29.57R
SPRINGFIELD    CLOUDY    52  41  66 W21G26    29.59R
TAYLORVILLE    CLOUDY    52  43  72 W21G29    29.58R
$$

ILZ033-039-045-046-055>057-062-063-242200-
EAST-CENTRAL ILLINOIS

CITY           SKY/WX    TMP DP  RH WIND       PRES   REMARKS
CHAMPAIGN      PTSUNNY   57  46  66 W23G36    29.52R
RANTOUL*       MOSUNNY   60  49  68 W20G31    29.49S
MATTOON        CLOUDY    57  50  77 W16       29.54R
PARIS*         CLOUDY    59  52  77 W23       29.53R
$$

ILZ079-100>102-242200-
SOUTHWEST ILLINOIS

CITY           SKY/WX    TMP DP  RH WIND       PRES   REMARKS
ALTON          PTSUNNY   54  41  62 W14G23    29.62R
CAHOKIA*       MOSUNNY   56  40  55 W14       29.62S
SPARTA*        CLOUDY    58  47  69 W14G21    29.60S
$$

ILZ064>066-069>071-074>076-080>082-084>086-088>090-092>094-242200-
SOUTH-CENTRAL ILLINOIS

CITY           SKY/WX    TMP DP  RH WIND       PRES   REMARKS
CARBONDALE     CLOUDY    66  56  70 SW14      29.58R
CAIRO*         CLOUDY    63  56  77 S13G24    29.62S
EFFINGHAM*     CLOUDY    58  52  79 SW21      29.59R
MARION         CLOUDY    66  57  72 SW13G18   29.50F
MT. VERNON     CLOUDY    60  51  72 VRB6      29.57R
CENTRALIA*     PTSUNNY   59  51  74 W18G24    29.59R
SALEM*         CLOUDY    59  50  70 W12G18    29.57R
METROPOLIS*    CLOUDY    65  55  71 SW15G25   29.63R
$$

ILZ067-068-072-073-078-083-087-091-242200-
SOUTHEAST ILLINOIS

CITY           SKY/WX    TMP DP  RH WIND       PRES   REMARKS
LAWRENCEVILLE  CLOUDY    69  53  56 SW22G31   29.53R
FLORA*         CLOUDY    62  52  70 W20G29    29.56R
FAIRFIELD*     CLOUDY    66  55  68 SW6       29.54S
HARRISBURG*    CLOUDY    66  57  71 SW14G23   29.57S
ROBINSON*      CLOUDY    65  55  68 SW15G21   29.52F
CARMI*         CLOUDY    67  56  67 SW16G23   29.56F
$$

ABBREVIATIONS USED IN REMARKS
   TC - TEMPERATURE IN CELSIUS
  WCI - WIND CHILL INDEX
   HX - HEAT INDEX
  VSB - VISIBILITY
$$





USA.gov is the U.S. government's official web portal to all federal, state and local government web resources and services.